Time,TemperatureF,DewpointF,PressureIn,WindDirection,WindDirectionDegrees,WindSpeedMPH,WindSpeedGustMPH,Humidity,HourlyPrecipIn,Conditions,Clouds,dailyrainin,SoftwareType,DateUTC
2013-09-30 09:55:00,50.5,48.3,26.81,SSE,149,11.0,11.0,92,0.00,,,0.31,VWS V14.01,2013-09-30 16:55:00,
2013-09-30 10:00:00,49.3,29.9,27.14,West,261,3.1,3.1,47,0.00,,,0.51,VWS V14.01,2013-09-30 17:00:00,
2013-09-30 10:05:00,49.3,29.9,27.14,SSE,154,3.6,4.0,47,0.00,,,0.51,VWS V14.01,2013-09-30 17:05:00,
2013-09-30 10:10:00,49.6,29.7,27.14,SW,224,4.0,4.0,46,0.00,,,0.51,VWS V14.01,2013-09-30 17:10:00,
2013-09-30 10:15:00,50.0,30.0,27.14,SW,218,4.9,5.4,46,0.00,,,0.51,VWS V14.01,2013-09-30 17:15:00,
2013-09-30 10:20:00,49.8,30.4,27.14,WSW,249,3.6,5.8,47,0.00,,,0.51,VWS V14.01,2013-09-30 17:20:00,
2013-09-30 10:25:00,49.5,30.6,27.14,SSW,210,3.1,3.1,48,0.00,,,0.51,VWS V14.01,2013-09-30 17:25:00,
2013-09-30 10:30:00,49.5,31.1,27.14,WSW,240,3.6,3.6,49,0.00,,,0.51,VWS V14.01,2013-09-30 17:30:00,
2013-09-30 10:35:00,49.6,30.8,27.14,WSW,246,0.0,2.7,48,0.00,,,0.51,VWS V14.01,2013-09-30 17:35:00,
2013-09-30 10:40:00,49.8,30.9,27.14,West,269,5.4,5.4,48,0.00,,,0.51,VWS V14.01,2013-09-30 17:40:00,
2013-09-30 10:45:00,50.2,30.8,27.14,NW,306,2.7,4.0,47,0.00,,,0.51,VWS V14.01,2013-09-30 17:45:00,
2013-09-30 10:50:00,50.5,30.5,27.14,NW,312,5.8,5.8,46,0.00,,,0.51,VWS V14.01,2013-09-30 17:50:00,
2013-09-30 10:55:00,50.5,31.1,27.14,WSW,237,6.3,6.3,47,0.00,,,0.51,VWS V14.01,2013-09-30 17:55:00,
2013-09-30 11:00:00,50.5,31.1,27.17,WSW,242,6.3,6.3,47,0.00,,,0.51,VWS V14.01,2013-09-30 18:00:00,
2013-09-30 11:05:00,50.5,30.5,27.17,SW,217,4.9,7.6,46,0.00,,,0.51,VWS V14.01,2013-09-30 18:05:00,
2013-09-30 11:10:00,50.4,30.4,27.17,WSW,246,3.1,8.3,46,0.00,,,0.51,VWS V14.01,2013-09-30 18:10:00,
2013-09-30 11:15:00,50.5,30.5,27.17,SW,228,4.0,7.2,46,0.00,,,0.51,VWS V14.01,2013-09-30 18:15:00,
2013-09-30 11:20:00,51.1,30.5,27.17,West,261,8.7,11.0,45,0.00,,,0.51,VWS V14.01,2013-09-30 18:20:00,
2013-09-30 11:25:00,52.2,30.9,27.17,WNW,286,8.3,8.3,44,0.00,,,0.51,VWS V14.01,2013-09-30 18:25:00,
2013-09-30 11:30:00,52.3,30.0,27.17,WNW,293,7.6,7.6,42,0.00,,,0.51,VWS V14.01,2013-09-30 18:30:00,
2013-09-30 11:35:00,52.5,30.7,27.17,SW,216,4.0,11.0,43,0.00,,,0.51,VWS V14.01,2013-09-30 18:35:00,
2013-09-30 11:40:00,52.7,29.7,27.17,SW,223,5.8,7.6,41,0.00,,,0.51,VWS V14.01,2013-09-30 18:40:00,
2013-09-30 11:45:00,52.7,30.3,27.17,SSE,147,8.3,10.5,42,0.00,,,0.51,VWS V14.01,2013-09-30 18:45:00,
2013-09-30 11:50:00,52.7,30.3,27.17,SSW,196,5.8,7.6,42,0.00,,,0.51,VWS V14.01,2013-09-30 18:50:00,
2013-09-30 11:55:00,52.3,30.0,27.17,SE,138,8.1,13.6,42,0.00,,,0.51,VWS V14.01,2013-09-30 18:55:00,
2013-09-30 12:00:00,52.5,29.5,27.17,WSW,245,8.3,15.9,41,0.00,,,0.51,VWS V14.01,2013-09-30 19:00:00,
2013-09-30 12:05:00,52.7,29.7,27.17,South,174,5.8,7.6,41,0.00,,,0.51,VWS V14.01,2013-09-30 19:05:00,
2013-09-30 12:10:00,53.1,30.6,27.17,NW,305,4.9,8.1,42,0.00,,,0.51,VWS V14.01,2013-09-30 19:10:00,
2013-09-30 12:15:00,53.8,30.6,27.17,WSW,253,5.8,10.5,41,0.00,,,0.51,VWS V14.01,2013-09-30 19:15:00,
2013-09-30 12:20:00,54.3,31.1,27.17,SW,224,7.6,8.1,41,0.00,,,0.51,VWS V14.01,2013-09-30 19:20:00,
2013-09-30 12:25:00,54.7,30.9,27.17,WSW,248,8.3,10.1,40,0.00,,,0.51,VWS V14.01,2013-09-30 19:25:00,
2013-09-30 12:30:00,54.9,31.6,27.17,SSW,200,4.0,5.4,41,0.00,,,0.51,VWS V14.01,2013-09-30 19:30:00,
2013-09-30 12:35:00,55.0,30.5,27.17,SW,233,3.6,8.7,39,0.00,,,0.51,VWS V14.01,2013-09-30 19:35:00,
2013-09-30 12:40:00,55.0,31.2,27.17,South,179,11.0,11.0,40,0.00,,,0.51,VWS V14.01,2013-09-30 19:40:00,
2013-09-30 12:45:00,55.4,31.5,27.17,SSW,198,8.1,12.3,40,0.00,,,0.51,VWS V14.01,2013-09-30 19:45:00,
2013-09-30 12:50:00,55.6,31.0,27.17,SSE,155,5.4,14.1,39,0.00,,,0.51,VWS V14.01,2013-09-30 19:50:00,
2013-09-30 12:55:00,55.0,31.2,27.17,SSE,168,6.3,8.3,40,0.00,,,0.51,VWS V14.01,2013-09-30 19:55:00,
2013-09-30 13:00:00,55.6,31.7,27.17,SSW,202,6.3,8.3,40,0.00,,,0.51,VWS V14.01,2013-09-30 20:00:00,
2013-09-30 13:05:00,55.8,31.2,27.17,South,188,5.4,8.7,39,0.00,,,0.51,VWS V14.01,2013-09-30 20:05:00,
2013-09-30 13:10:00,55.8,31.2,27.17,SSW,209,6.3,10.1,39,0.00,,,0.51,VWS V14.01,2013-09-30 20:10:00,
2013-09-30 13:15:00,55.8,31.8,27.14,SW,235,4.0,10.1,40,0.00,,,0.51,VWS V14.01,2013-09-30 20:15:00,
2013-09-30 13:20:00,56.1,31.5,27.14,NNW,329,12.8,12.8,39,0.00,,,0.51,VWS V14.01,2013-09-30 20:20:00,
2013-09-30 13:25:00,55.8,31.2,27.14,WNW,294,8.7,10.1,39,0.00,,,0.51,VWS V14.01,2013-09-30 20:25:00,
2013-09-30 13:30:00,55.8,31.2,27.17,SSE,147,5.4,8.3,39,0.00,,,0.51,VWS V14.01,2013-09-30 20:30:00,
2013-09-30 13:35:00,55.9,31.4,27.17,South,184,8.3,11.0,39,0.00,,,0.51,VWS V14.01,2013-09-30 20:35:00,
2013-09-30 13:40:00,56.1,31.5,27.17,WSW,246,12.3,12.3,39,0.00,,,0.00,VWS V14.01,2013-09-30 20:40:00,
2013-09-30 13:45:00,56.5,32.5,27.17,South,185,5.8,10.5,40,0.00,,,0.00,VWS V14.01,2013-09-30 20:45:00,
2013-09-30 13:50:00,56.3,31.7,27.17,West,261,8.3,8.3,39,0.00,,,0.00,VWS V14.01,2013-09-30 20:50:00,
2013-09-30 13:55:00,56.5,31.8,27.17,WSW,250,5.8,17.9,39,0.00,,,0.00,VWS V14.01,2013-09-30 20:55:00,
2013-09-30 14:00:00,56.7,32.0,27.17,SSW,195,5.4,10.5,39,0.00,,,0.00,VWS V14.01,2013-09-30 21:00:00,
2013-09-30 14:05:00,56.3,31.0,27.17,WNW,300,6.3,10.1,38,0.00,,,0.00,VWS V14.01,2013-09-30 21:05:00,
2013-09-30 14:10:00,56.1,30.9,27.17,SSW,210,6.3,8.7,38,0.00,,,0.00,VWS V14.01,2013-09-30 21:10:00,
2013-09-30 14:15:00,56.5,31.8,27.20,SSE,162,8.3,9.6,39,0.00,,,0.00,VWS V14.01,2013-09-30 21:15:00,
2013-09-30 14:20:00,56.7,32.0,27.20,SSW,194,8.1,8.1,39,0.00,,,0.00,VWS V14.01,2013-09-30 21:20:00,
2013-09-30 14:25:00,56.1,30.9,27.20,WSW,242,2.7,6.3,38,0.00,,,0.00,VWS V14.01,2013-09-30 21:25:00,
2013-09-30 14:30:00,55.9,30.7,27.20,WSW,246,5.8,13.2,38,0.00,,,0.00,VWS V14.01,2013-09-30 21:30:00,
2013-09-30 14:35:00,55.6,31.0,27.20,SW,228,5.8,8.1,39,0.00,,,0.00,VWS V14.01,2013-09-30 21:35:00,
2013-09-30 14:40:00,55.6,30.4,27.20,SW,224,5.8,8.7,38,0.00,,,0.00,VWS V14.01,2013-09-30 21:40:00,
2013-09-30 14:45:00,55.6,30.4,27.20,South,172,9.6,9.6,38,0.00,,,0.00,VWS V14.01,2013-09-30 21:45:00,
2013-09-30 15:45:00,55.9,32.0,27.20,West,275,4.0,4.0,40,0.00,,,0.12,VWS V14.01,2013-09-30 22:45:00,
2013-09-30 15:50:00,55.9,31.4,27.20,WNW,301,6.3,6.3,39,0.00,,,0.00,VWS V14.01,2013-09-30 22:50:00,
2013-09-30 15:55:00,55.8,31.2,27.20,WSW,246,6.3,6.3,39,0.00,,,0.00,VWS V14.01,2013-09-30 22:55:00,
2013-09-30 16:00:00,55.8,31.2,27.20,SW,219,10.1,10.1,39,0.00,,,0.00,VWS V14.01,2013-09-30 23:00:00,
2013-09-30 16:05:00,55.6,31.0,27.20,SSE,164,3.6,6.3,39,0.00,,,0.00,VWS V14.01,2013-09-30 23:05:00,
2013-09-30 16:10:00,55.2,30.7,27.20,SSW,210,10.1,10.1,39,0.00,,,0.00,VWS V14.01,2013-09-30 23:10:00,
2013-09-30 16:15:00,54.1,29.8,27.20,WSW,258,7.2,7.2,39,0.00,,,0.00,VWS V14.01,2013-09-30 23:15:00,
2013-09-30 16:20:00,53.8,30.0,27.20,SW,232,5.4,5.8,40,0.00,,,0.00,VWS V14.01,2013-09-30 23:20:00,
2013-09-30 16:25:00,53.4,30.3,27.20,WNW,292,8.3,8.3,41,0.00,,,0.00,VWS V14.01,2013-09-30 23:25:00,
2013-09-30 16:30:00,53.2,30.8,27.20,South,183,10.1,10.1,42,0.00,,,0.00,VWS V14.01,2013-09-30 23:30:00,
2013-09-30 16:35:00,53.4,31.5,27.20,SW,222,8.3,8.3,43,0.00,,,0.00,VWS V14.01,2013-09-30 23:35:00,
2013-09-30 16:40:00,53.6,31.1,27.20,West,260,5.8,6.3,42,0.00,,,0.00,VWS V14.01,2013-09-30 23:40:00,
2013-09-30 16:45:00,53.8,31.2,27.20,SE,134,5.8,5.8,42,0.00,,,0.00,VWS V14.01,2013-09-30 23:45:00,
2013-09-30 16:50:00,53.6,31.1,27.20,NW,310,2.7,4.9,42,0.00,,,0.00,VWS V14.01,2013-09-30 23:50:00,
2013-09-30 16:55:00,53.6,31.1,27.20,SW,230,6.3,8.7,42,0.00,,,0.00,VWS V14.01,2013-09-30 23:55:00,
2013-09-30 17:00:00,53.6,31.1,27.20,West,270,4.0,6.3,42,0.00,,,0.00,VWS V14.01,2013-10-01 00:00:00,
2013-09-30 17:37:00,53.4,30.9,27.20,WSW,241,2.7,2.7,42,0.00,,,0.12,VWS V14.01,2013-10-01 00:37:00,
2013-09-30 17:42:00,51.6,31.5,27.23,SW,231,5.4,5.4,46,0.00,,,0.00,VWS V14.01,2013-10-01 00:42:00,
2013-09-30 17:47:00,51.4,31.9,27.20,SW,220,8.3,8.3,47,0.00,,,0.00,VWS V14.01,2013-10-01 00:47:00,
2013-09-30 17:52:00,51.4,31.9,27.20,NNW,334,8.1,8.1,47,0.00,,,0.00,VWS V14.01,2013-10-01 00:52:00,
2013-09-30 17:57:00,51.4,31.9,27.20,WSW,249,9.6,9.6,47,0.00,,,0.00,VWS V14.01,2013-10-01 00:57:00,
2013-09-30 18:02:00,51.3,31.7,27.23,South,180,7.6,8.7,47,0.00,,,0.00,VWS V14.01,2013-10-01 01:02:00,
2013-09-30 18:07:00,51.1,31.6,27.23,SSW,193,5.4,5.8,47,0.00,,,0.00,VWS V14.01,2013-10-01 01:07:00,
2013-09-30 18:12:00,50.5,31.6,27.23,SW,217,6.3,6.3,48,0.00,,,0.00,VWS V14.01,2013-10-01 01:12:00,
2013-09-30 18:17:00,50.2,31.8,27.23,SSE,154,3.6,6.3,49,0.00,,,0.00,VWS V14.01,2013-10-01 01:17:00,
2013-09-30 18:22:00,49.8,32.4,27.23,NW,307,5.8,5.8,51,0.00,,,0.00,VWS V14.01,2013-10-01 01:22:00,
2013-09-30 18:27:00,49.5,32.6,27.23,WSW,247,3.6,3.6,52,0.00,,,0.00,VWS V14.01,2013-10-01 01:27:00,
2013-09-30 18:32:00,49.1,33.2,27.23,WSW,239,2.7,2.7,54,0.00,,,0.00,VWS V14.01,2013-10-01 01:32:00,
2013-09-30 18:37:00,48.9,33.0,27.23,WSW,255,3.1,4.9,54,0.00,,,0.00,VWS V14.01,2013-10-01 01:37:00,
2013-09-30 18:42:00,48.7,33.3,27.23,NW,304,2.7,3.1,55,0.00,,,0.00,VWS V14.01,2013-10-01 01:42:00,
2013-09-30 18:47:00,48.6,33.1,27.23,SSW,210,0.0,0.0,55,0.00,,,0.00,VWS V14.01,2013-10-01 01:47:00,
2013-09-30 18:52:00,48.2,32.8,27.23,West,267,3.1,3.1,55,0.00,,,0.00,VWS V14.01,2013-10-01 01:52:00,
2013-09-30 18:57:00,47.8,32.9,27.23,SSW,207,3.1,3.1,56,0.00,,,0.00,VWS V14.01,2013-10-01 01:57:00,
2013-09-30 19:02:00,47.5,33.0,27.23,SW,233,5.8,5.8,57,0.00,,,0.00,VWS V14.01,2013-10-01 02:02:00,
2013-09-30 19:07:00,47.3,32.8,27.23,SW,222,4.0,4.9,57,0.00,,,0.00,VWS V14.01,2013-10-01 02:07:00,
2013-09-30 19:12:00,47.1,33.1,27.23,WSW,240,2.7,2.7,58,0.00,,,0.00,VWS V14.01,2013-10-01 02:12:00,
2013-09-30 19:17:00,47.1,33.1,27.23,West,272,4.0,4.0,58,0.00,,,0.00,VWS V14.01,2013-10-01 02:17:00,
2013-09-30 19:22:00,47.3,32.4,27.23,WSW,241,2.2,4.0,56,0.00,,,0.00,VWS V14.01,2013-10-01 02:22:00,
2013-09-30 19:27:00,47.3,32.4,27.23,WNW,289,4.0,8.3,56,0.00,,,0.00,VWS V14.01,2013-10-01 02:27:00,
2013-09-30 19:32:00,47.3,32.4,27.23,SW,216,5.8,5.8,56,0.00,,,0.00,VWS V14.01,2013-10-01 02:32:00,
2013-09-30 19:37:00,47.3,32.4,27.23,West,270,4.9,4.9,56,0.00,,,0.00,VWS V14.01,2013-10-01 02:37:00,
2013-09-30 19:42:00,47.1,32.7,27.23,South,177,3.1,3.1,57,0.00,,,0.00,VWS V14.01,2013-10-01 02:42:00,
2013-09-30 19:47:00,46.9,32.5,27.23,West,271,2.7,3.6,57,0.00,,,0.00,VWS V14.01,2013-10-01 02:47:00,
2013-09-30 19:52:00,46.8,32.8,27.23,South,187,2.7,2.7,58,0.00,,,0.00,VWS V14.01,2013-10-01 02:52:00,
2013-09-30 19:57:00,46.8,33.2,27.23,ENE,72,0.0,2.7,59,0.00,,,0.00,VWS V14.01,2013-10-01 02:57:00,
2013-09-30 20:02:00,46.6,33.0,27.23,West,269,0.0,0.0,59,0.00,,,0.00,VWS V14.01,2013-10-01 03:02:00,
2013-09-30 20:07:00,46.4,33.7,27.23,SSW,192,2.7,2.7,61,0.00,,,0.00,VWS V14.01,2013-10-01 03:07:00,
2013-09-30 20:12:00,46.0,33.8,27.23,West,268,3.1,3.6,62,0.00,,,0.00,VWS V14.01,2013-10-01 03:12:00,
2013-09-30 20:17:00,45.9,32.8,27.26,NW,312,4.0,4.0,60,0.00,,,0.00,VWS V14.01,2013-10-01 03:17:00,
2013-09-30 20:22:00,45.9,32.4,27.26,WSW,249,0.0,2.2,59,0.00,,,0.00,VWS V14.01,2013-10-01 03:22:00,
2013-09-30 20:27:00,45.9,31.9,27.26,SW,225,2.7,2.7,58,0.00,,,0.00,VWS V14.01,2013-10-01 03:27:00,